Location: Clinton NY
(43.0598°N, 75.3602°W)
Time: 20:17:42
(UTC-05:00)

Daily predictions for brighter satellites

Satellite Brightness Start Highest point End
(mag) Time Altitude Azimuth Time Altitude Azimuth Time Altitude Azimuth
CZ-2C R/B 3.7 18:00:36 10° NNE 18:05:06 87° ESE 18:09:31 10° SSW
Lacrosse 5 2.4 18:00:07 10° NW 18:05:08 64° SW 18:10:07 10° SSE
Cosmos 1452 Rocket 4.0 18:00:38 10° N 18:05:35 39° ENE 18:10:30 10° SE
DNEPR-1 R/B 3.4 18:02:49 10° SSW 18:06:59 72° ESE 18:11:19 10° NE
BREEZE-M DEB (TANK) 2.7 18:07:17 10° NW 18:09:38 28° NNE 18:11:54 10° ENE
SPOT 3 Rocket 3.7 18:04:41 10° SE 18:09:42 53° ENE 18:14:47 10° N
Iridium 4 Rocket 4.3 18:07:43 10° NNE 18:11:40 24° ENE 18:15:21 10° SE
ATLAS 3B R/B 3.5 18:04:44 10° SW 18:11:49 55° NW 18:18:38 10° NNE
Cosmos 1980 3.9 18:08:07 10° NNW 18:13:50 79° WSW 18:19:30 10° SSE
NOSS 3-2 (A) 3.7 18:09:00 10° SW 18:14:55 77° NW 18:21:34 10° NE
Cosmos 2233 Rocket 4.1 18:11:04 10° N 18:17:23 89° E 18:23:37 10° S
Cosmos 1437 Rocket 4.5 18:16:24 10° ESE 18:18:40 15° E 18:20:56 10° NE
EO 1 Del DPAF 3.5 18:16:05 10° NNE 18:19:46 44° E 18:23:26 10° S
Cosmos 1420 Rocket 4.3 18:21:11 10° N 18:26:18 48° ENE 18:31:25 10° SE
Cosmos 1378 Rocket 4.1 18:23:55 10° N 18:28:01 37° ENE 18:32:08 10° SE
Cosmos 405 2.8 18:24:56 10° S 18:28:25 75° E 18:31:56 10° NNE
Landsat 4 3.6 18:26:56 10° NNE 18:30:41 78° ESE 18:34:25 10° S
USA 186 4.1 18:31:32 10° NE 18:31:32 10° NE 18:31:34 10° NE
Cosmos 1464 Rocket 4.1 18:29:15 10° N 18:35:16 54° ENE 18:41:14 10° SSE
NOAA 12 4.4 18:30:15 10° S 18:35:32 76° WSW 18:40:54 10° NNW
FengYun 1-2 T 4.2 18:30:11 10° SSE 18:35:35 60° ENE 18:40:59 10° N
Sich 1 Rocket 4.2 18:33:16 10° SSE 18:37:20 34° E 18:41:23 10° NNE
COSMO-SKYMED 1 3.7 18:38:29 10° N 18:42:39 46° WNW 18:46:48 10° SW
Cosmos 1072 Rocket 4.4 18:40:23 10° N 18:46:36 72° E 18:52:51 10° SSE
ARGOS Delta rocket 4.4 18:49:03 10° NNE 18:53:30 34° E 18:57:42 10° SSE
Okean 2 Rocket 4.1 18:50:13 10° SE 18:53:42 23° E 18:57:12 10° NE
USA 215 3.5 18:49:59 13° ENE 18:55:49 51° SE 19:02:08 10° SSW
SeaSat 1 2.7 18:53:04 13° SE 18:57:19 48° ENE 19:02:04 10° NNW
Cosmos 468 4.4 18:52:12 10° SSW 18:57:26 74° ESE 19:02:41 10° NNE
Cosmos 2227 Rocket 3.2 18:52:34 10° SW 18:58:01 48° WNW 19:03:30 10° NNE
Cosmos 2237 Rocket 3.8 18:52:56 10° NW 18:58:02 37° WSW 19:03:08 10° S
SJ-6B 2.8 18:56:01 10° SSE 18:59:41 54° ENE 19:03:27 10° N
Envisat 3.2 18:55:09 10° SE 18:59:58 45° ENE 19:04:49 10° N
Thor Agena Rocket 3.7 18:55:31 10° NNE 19:00:24 45° E 19:05:13 10° S
SL-16 R/B 2.2 18:56:30 10° NNW 19:02:13 84° WSW 19:07:52 10° SSE
Tiangong 2 2.9 19:01:19 10° W 19:04:02 26° SSW 19:05:47 16° SSE
Cosmos 44 Rocket 3.4 19:00:52 10° NW 19:05:56 83° WSW 19:11:03 10° SSE
FREGAT/IRIS 3.0 19:03:41 10° S 19:06:37 63° W 19:09:34 10° NNW
USA 32 3.9 19:02:21 10° S 19:07:32 69° E 19:12:44 10° N
NOSS 3-2 (C) 4.3 19:02:37 10° WSW 19:08:26 49° NW 19:14:55 10° NNE
Cosmos 1269 Rocket 4.1 19:03:44 10° S 19:08:51 53° ESE 19:14:00 10° NNE
H-2A R/B 3.9 19:05:39 10° S 19:09:25 47° W 19:13:13 10° NNW
Cosmos 2034 Rocket 3.9 19:04:18 10° N 19:10:43 75° E 19:17:04 10° SSE
HJ-1C 3.3 19:08:14 10° SSE 19:11:40 88° WSW 19:15:06 10° NNW
Cosmos 2297 Rocket 3.4 19:06:38 10° SW 19:12:00 43° WNW 19:17:24 10° NNE
Cosmos 1891 Rocket 4.4 19:06:24 10° N 19:12:40 90° W 19:18:46 10° S
Okean 1 3.1 19:09:05 10° N 19:13:06 81° E 19:17:04 10° S
Cosmos 1908 Rocket 3.9 19:11:45 10° SSW 19:16:12 69° W 19:20:40 10° N
Cosmos 1633 3.7 19:16:28 10° SSW 19:19:51 44° W 19:23:19 10° N
Cosmos 921 Rocket 3.0 19:15:24 10° NNW 19:19:56 84° ENE 19:23:43 15° SSE
Cosmos 1603 3.9 19:15:09 10° NNW 19:20:39 48° ENE 19:22:38 34° ESE
ERS-2 3.3 19:18:52 10° S 19:22:24 43° W 19:25:56 10° NNW
Cosmos 1634 Rocket 4.4 19:18:16 10° N 19:24:00 38° ENE 19:25:21 34° ESE
CZ-2D R/B 3.2 19:22:47 10° SSE 19:26:42 85° W 19:30:37 10° NNW
Cosmos 1816 Rocket 4.4 19:21:21 10° S 19:27:36 65° E 19:33:54 10° NNE
H-2A R/B 4.4 19:31:19 10° NNE 19:31:19 10° NNE 19:31:19 10° NNE
USA 267 3.8 19:27:11 31° ENE 19:29:44 44° NNE 19:35:51 10° NW
Resurs 1-3 3.6 19:30:55 54° ENE 19:31:02 54° ENE 19:35:19 10° N
CENTAUR R/B 2.7 19:27:23 10° SW 19:33:24 72° NW 19:40:23 10° NNE
CZ-4C R/B 3.5 19:29:33 10° NNW 19:35:56 36° NE 19:37:37 33° ENE
SL-8 R/B 3.9 19:34:40 10° WSW 19:39:25 65° NNW 19:40:31 49° NE
Cosmos 1602 3.7 19:35:40 10° S 19:39:34 80° W 19:43:29 10° N
Cosmos 1975 Rocket 3.3 19:37:52 10° NNW 19:42:17 70° W 19:46:31 11° S
Resurs 01 Rocket 1.4 19:42:38 72° ENE 19:42:38 72° ENE 19:47:03 10° N
Cosmos 1331 Rocket 3.9 19:40:54 10° NNW 19:46:11 62° ENE 19:46:26 61° E
Spot 2 Rocket 3.3 19:49:48 68° E 19:49:55 69° ENE 19:54:59 10° N
Meteor 1-19 Rocket 4.2 19:44:31 10° NNW 19:50:04 80° W 19:54:50 14° S
Geosat 3.8 19:51:12 63° NE 19:51:56 77° ESE 19:56:57 10° SSW
Meteor 2-4 Rocket 3.6 19:47:40 10° N 19:53:32 77° E 19:54:53 53° SSE
Meteor 1-11 Rocket 3.5 19:48:41 10° S 19:54:14 76° E 19:59:56 10° NNE
Cosmos 1437 Rocket 4.0 19:50:40 10° SSW 19:54:31 43° WNW 19:58:28 10° N
Cosmos 2227 4.2 19:54:23 10° SSW 20:00:07 84° WNW 20:03:12 29° NNE
USA 186 4.3 20:03:05 19° NNW 20:03:05 19° NNW 20:04:13 10° NNW
COSMOS 2455 3.6 19:55:48 10° S 19:59:33 37° S 19:59:33 37° S
Cosmos 1939 Rocket 4.0 20:05:46 40° NNW 20:05:46 40° NNW 20:08:32 10° NNW
ATLAS CENTAUR R/B 3.8 20:20:56 10° NNW 20:21:59 17° NNW 20:21:59 17° NNW
Cosmos 1943 3.6 20:22:45 10° NNW 20:27:09 56° NNW 20:27:09 56° NNW
SeaSat 1 4.4 20:32:53 18° SW 20:35:01 24° WSW 20:39:01 10° NW
USA 215 3.7 20:37:20 45° N 20:38:50 55° NNW 20:45:09 10° WSW
USA 267 4.0 21:14:32 46° WNW 21:14:32 46° WNW 21:19:04 10° NW
CZ-4C R/B 3.7 21:17:49 10° NW 21:22:51 47° WNW 21:22:51 47° WNW
